Weather History for KMBL - August, 2012

Change the Weather History Date:

Wednesday, August 1, 2012

  Actual Average Record
Temperature  
Mean Temperature 66 °F -  
Max Temperature 80 °F 79 °F 92 °F (1975)
Min Temperature 53 °F 59 °F 43 °F (1979)
Cooling Degree Days 2    
Growing Degree Days 16 (Base 50)    
Moisture  
Dew Point 59 °F    
Average Humidity 81    
Maximum Humidity 94    
Minimum Humidity 54    
Precipitation  
Precipitation 0.00 in - - ()
Sea Level Pressure  
Sea Level Pressure 29.96 in    
Wind  
Wind Speed 3 mph (SSE)    
Max Wind Speed 16 mph    
Max Gust Speed 91 mph    
Visibility 6 miles    
Events      
Averages and records for this station are not official NWS values.
T = Trace of Precipitation, MM = Missing Value Source: NWS Daily Summary

Daily Weather History Graph

Daily Weather History Graph

Search for Another Location

Airport or City:

Trip Planner

Search our weather history database for the weather conditions in past years. The results will help you decide how hot, cold, wet, or windy it might be!

Date:

Astronomy

Aug. 01, 2012 Rise Set
Actual Time 6:32 AM EDT 9:08 PM EDT
Civil Twilight 5:59 AM EDT 9:41 PM EDT
Nautical Twilight 5:18 AM EDT 10:23 PM EDT
Astronomical Twilight 4:30 AM EDT 11:10 PM EDT
Moon 8:35 PM EDT (8/1) 6:02 AM EDT (8/1)
Length of Visible Light 15h 42m
Length of Day
14h 35m
Full, 100% of the Moon is Illuminated
Aug 1
Full
Aug 1
Full
Aug 9
Last Quarter
Aug 17
New
Aug 24
First Quarter

Hourly Weather History & Observations

Time (EDT) Temp. Heat Index Dew Point Humidity Pressure Visibility Wind Dir Wind Speed Gust Speed Precip Events Conditions
12:35 AM 60.8 °F - 57.2 °F 88% 29.96 in 2.0 mi East 3.5 mph - N/A   Scattered Clouds
1:15 AM 57.2 °F - 55.4 °F 94% 29.96 in 3.0 mi Calm Calm - N/A   Clear
1:35 AM 57.2 °F - 53.6 °F 88% 29.95 in 0.5 mi East 3.5 mph - N/A   Unknown
1:55 AM 57.2 °F - 55.4 °F 94% 29.95 in 1.8 mi Calm Calm - N/A   Clear
2:15 AM 57.2 °F - 55.4 °F 94% 29.96 in 5.0 mi Calm Calm - N/A   Clear
2:35 AM 57.2 °F - 53.6 °F 88% 29.96 in 0.5 mi Calm Calm - N/A   Mostly Cloudy
2:55 AM 55.4 °F - 53.6 °F 94% 29.97 in 0.8 mi Calm Calm - N/A   Overcast
3:15 AM 55.4 °F - 51.8 °F 88% 29.97 in 5.0 mi Calm Calm - N/A   Scattered Clouds
3:35 AM 55.4 °F - 53.6 °F 94% 29.97 in 0.8 mi Calm Calm - N/A   Mostly Cloudy
3:55 AM 55.4 °F - 53.6 °F 94% 29.98 in 10.0 mi Calm Calm - N/A   Partly Cloudy
4:15 AM 55.4 °F - 51.8 °F 88% 29.98 in 1.0 mi Calm Calm - N/A   Mostly Cloudy
4:35 AM 53.6 °F - 51.8 °F 94% 29.98 in 3.0 mi Calm Calm - N/A   Scattered Clouds
4:55 AM 53.6 °F - 50.0 °F 88% 29.98 in 0.5 mi East 3.5 mph - N/A   Overcast
5:15 AM 53.6 °F - 51.8 °F 94% 29.98 in 1.0 mi ESE 3.5 mph - N/A   Overcast
5:35 AM 53.6 °F - 50.0 °F 88% 29.98 in 1.2 mi ESE 3.5 mph - N/A   Overcast
5:55 AM 53.6 °F - 50.0 °F 88% 29.98 in 0.5 mi East 3.5 mph - N/A   Overcast
6:15 AM 53.6 °F - 51.8 °F 94% 29.97 in 0.8 mi ESE 3.5 mph - N/A   Overcast
6:35 AM 53.6 °F - 51.8 °F 94% 29.97 in 0.2 mi ESE 3.5 mph - N/A   Overcast
6:55 AM 53.6 °F - 51.8 °F 94% 29.97 in 0.2 mi Calm Calm - N/A   Overcast
7:15 AM 53.6 °F - 51.8 °F 94% 29.97 in 0.2 mi Calm Calm - N/A   Overcast
7:35 AM 53.6 °F - 51.8 °F 94% 29.97 in 0.2 mi Calm Calm - N/A   Overcast
8:15 AM 55.4 °F - 53.6 °F 94% 29.98 in 0.2 mi East 4.6 mph - N/A   Overcast
8:35 AM 55.4 °F - 53.6 °F 94% 29.98 in 0.2 mi ESE 4.6 mph - N/A   Overcast
8:55 AM 57.2 °F - 55.4 °F 94% 29.98 in 3.0 mi ESE 3.5 mph - N/A   Overcast
9:15 AM 60.8 °F - 57.2 °F 88% 29.98 in 8.0 mi ESE 3.5 mph - N/A   Scattered Clouds
9:35 AM 60.8 °F - 59.0 °F 94% 29.98 in 10.0 mi Calm Calm - N/A   Clear
9:55 AM 64.4 °F - 62.6 °F 94% 29.97 in 10.0 mi Calm Calm - N/A   Clear
10:15 AM 68.0 °F - 62.6 °F 83% 29.97 in 10.0 mi SE 3.5 mph - N/A   Clear
10:35 AM 71.6 °F - 62.6 °F 73% 29.97 in 10.0 mi South 4.6 mph - N/A   Clear
2:15 PM - - - N/A% 29.94 in - Calm Calm - N/A   Unknown
2:35 PM 78.8 °F - 64.4 °F 61% 29.93 in - West 12.7 mph 90.9 mph N/A   Clear
2:55 PM 78.8 °F - 64.4 °F 61% 29.93 in 7.0 mi West 11.5 mph - N/A   Clear
3:15 PM - - - N/A% - - West 11.5 mph - N/A   Unknown
3:35 PM 80.6 °F 82.3 °F 64.4 °F 58% - 10.0 mi WSW 12.7 mph 17.3 mph N/A   Unknown
3:55 PM 80.6 °F 82.3 °F 64.4 °F 58% - 9.0 mi West 16.1 mph - N/A   Partly Cloudy
4:15 PM 80.6 °F 81.8 °F 62.6 °F 54% 29.92 in 10.0 mi West 12.7 mph 18.4 mph N/A   Partly Cloudy
4:35 PM 78.8 °F - 64.4 °F 61% 29.92 in 10.0 mi West 11.5 mph - N/A   Clear
4:55 PM 78.8 °F - 64.4 °F 61% - 10.0 mi West 9.2 mph - N/A   Clear
5:15 PM 78.8 °F - 64.4 °F 61% 29.92 in 10.0 mi SW 9.2 mph - N/A   Clear
5:35 PM 78.8 °F - 64.4 °F 61% - 10.0 mi SW 6.9 mph - N/A   Clear
5:55 PM 77.0 °F - 64.4 °F 65% - 10.0 mi SW 4.6 mph - N/A   Clear
6:15 PM 77.0 °F - 64.4 °F 65% - 10.0 mi WSW 5.8 mph - N/A   Clear
6:35 PM 77.0 °F - 64.4 °F 65% - 10.0 mi SW 4.6 mph - N/A   Clear
7:15 PM 75.2 °F - 64.4 °F 69% - 10.0 mi SW 5.8 mph - N/A   Clear
7:35 PM 75.2 °F - 64.4 °F 69% - 10.0 mi SSW 4.6 mph - N/A   Clear
7:55 PM 75.2 °F - 64.4 °F 69% - 10.0 mi South 3.5 mph - N/A   Clear
8:15 PM 73.4 °F - 64.4 °F 73% - 10.0 mi SE 6.9 mph - N/A   Partly Cloudy
8:35 PM 73.4 °F - 64.4 °F 73% - 10.0 mi SE 4.6 mph - N/A   Clear
8:55 PM 73.4 °F - 64.4 °F 73% - 10.0 mi SE 3.5 mph - N/A   Clear
9:15 PM 73.4 °F - 64.4 °F 73% - 10.0 mi Calm Calm - N/A   Clear
9:35 PM 71.6 °F - 64.4 °F 78% - 10.0 mi West 4.6 mph - N/A   Clear
9:55 PM 71.6 °F - 64.4 °F 78% - 10.0 mi Calm Calm - N/A   Clear
10:35 PM 69.8 °F - 62.6 °F 78% - 10.0 mi Calm Calm - N/A   Clear
10:55 PM 66.2 °F - 62.6 °F 88% - 10.0 mi East 3.5 mph - N/A   Clear
11:15 PM 66.2 °F - 62.6 °F 88% - 10.0 mi East 4.6 mph - N/A   Clear
11:35 PM 66.2 °F - 62.6 °F 88% - 8.0 mi East 3.5 mph - N/A   Clear
11:55 PM 66.2 °F - 62.6 °F 88% - 10.0 mi East 3.5 mph - N/A   Clear